Location: L�Ave Maria
(50.7161°N, 1.5911°E)
Time: 13:17:15
(UTC+00:00)

Cosmos 1110 Rocket - Pass Details

Date: 10 July 2020
Orbit: 752 x 782 km, 74.0° (Epoch: 06 August)

Event Time Altitude Azimuth Distance (km) Brightness Sun altitude
Rises 23:45:16 0° 333° (NNW) 3,258 8.5 -17.1°
Reaches altitude 10° 23:47:40 10° 331° (NNW) 2,331 7.5 -17.2°
Maximum altitude 23:52:54 64° 251° (WSW) 863 4.1 -17.2°
Enters shadow 23:55:28 30° 180° (S) 1,370 4.7 -17.2°
